Location: Clyde
(45.1830°S, 169.3170°E)
Time: 17:18:32
(UTC+12:00)

Cosmos 2369 Rocket - Pass Details

Date: 14 May 2021
Orbit: 827 x 854 km, 71.0° (Epoch: 16 June)

Event Time Altitude Azimuth Distance (km) Brightness Sun altitude
Rises 21:04:10 0° 207° (SSW) 3,417 5.8 -38.5°
Reaches altitude 10° 21:06:38 10° 208° (SSW) 2,474 5.0 -38.9°
Enters shadow 21:07:48 17° 209° (SSW) 2,036 4.5 -39.1°
